Tracking 28125 objects as of 3-Oct-2023
HD Live streaming from Space Station
objects crossing your sky now

DMSP 5D-3 F16 DEB

Track DMSP 5D-3 F16 DEB now!
10-day predictions


NORAD ID: 28056
Int'l Code: 2003-048C
Perigee: 814.1 km
Apogee: 817.7 km
Inclination: 98.8 °
Period: 101.1 minutes
Semi major axis: 7186 km
RCS: 0.072 m2 (small)
Launch date: October 18, 2003
Source: United States (US)
Launch site: AIR FORCE WESTERN TEST RANGE (AFWTR)

Note: This is SATELLITE DEBRIS
Your satellite tracking list
Your tracking list is empty




NASA's NSSDC Master Catalog

Two Line Element Set (TLE):
1 28056U 03048C   23275.78754197  .00003875  00000-0  16764-2 0  9992
2 28056  98.7690 265.6959 0002508 154.6535 205.4767 14.24926420 33166
Source of the keplerian elements: AFSPC